Vertical_Velocity
2 0 1 1 1 1 1 1 0 1 0 -0 -1 -1 -0 -1 -1 -1 -0 -2 -1 -1
3 2 1 1 2 2 1 1 1 0 -0 -2 -2 -1 -1 -1 -0 -0 -1 -1 -1 -0
2 2 2 1 1 1 -1 -0 0 0 -1 -1 0 0 0 -0 0 -0 -0 0 0 -0
2 2 1 0 1 1 -0 1 0 -0 -0 -0 0 0 -0 -0 -0 -1 -0 -1 -0 -0
2 2 0 1 2 0 0 0 -0 -0 -0 -1 -1 -1 -1 -2 -1 -1 -1 -1 -1 0
1 0 1 1 0 -0 -0 0 0 -0 -1 -1 -2 -2 -1 -0 -1 -1 0 -0 0 -0
1 2 2 1 1 0 0 0 -1 -1 -2 -2 -1 -1 -1 -2 -1 -1 -0 -1 -1 -1
2 1 0 -1 -0 -0 -0 -1 -1 -0 -1 -1 -1 -2 -2 0 0 1 1 -1 -1 -1
0 -1 -1 -1 -1 -1 -0 -1 -1 -2 -2 -3 -2 -1 -2 -1 0 -1 -1 1 1 0
-1 -1 -0 -0 -0 -1 -1 -1 -1 -1 -1 -1 -1 -1 0 -2 -1 -1 -2 -2 -3 -1
-1 -1 -1 -0 -1 -0 -1 0 -1 -1 0 -0 -1 0 -1 -3 -1 -1 -2 -2 -2 -3
-0 -0 0 0 0 0 -0 -0 -0 0 -1 -0 -0 -1 -1 -1 -1 -1 -1 -0 0 -1
0 -0 0 0 -1 -1 -1 -2 -1 -2 -2 -3 -0 -0 -1 -2 -2 -1 -3 -2 -1 -2
-0 -0 -1 -2 -1 -1 -1 -0 -1 -1 -2 -2 -2 -2 -2 -4 -4 -3 -1 -3 -2 -2
Height
3102 3103 3105 3106 3108 3110 3111 3112 3113 3114 3114 3114 3113 3112 3111 3109 3108 3106 3105 3104 3103 3101
3095 3097 3099 3101 3104 3105 3106 3107 3108 3108 3108 3108 3107 3106 3105 3103 3101 3100 3099 3098 3097 3095
3089 3092 3094 3097 3098 3099 3100 3101 3102 3103 3102 3102 3101 3099 3098 3096 3095 3093 3092 3091 3090 3089
3084 3087 3089 3091 3092 3094 3095 3096 3097 3096 3096 3095 3093 3092 3090 3089 3088 3087 3086 3085 3083 3082
3079 3081 3083 3085 3087 3088 3090 3090 3090 3089 3088 3087 3085 3084 3084 3083 3082 3081 3080 3079 3077 3075
3073 3076 3078 3080 3082 3083 3083 3083 3082 3081 3080 3080 3079 3079 3078 3077 3076 3075 3073 3071 3069 3066
3068 3071 3073 3074 3075 3075 3076 3075 3075 3075 3075 3074 3074 3073 3072 3070 3069 3067 3065 3062 3059 3056
3063 3065 3066 3067 3068 3069 3069 3069 3069 3069 3068 3068 3067 3065 3064 3062 3060 3058 3056 3052 3049 3045
3057 3059 3060 3061 3061 3062 3062 3062 3062 3062 3061 3060 3059 3057 3055 3053 3051 3048 3045 3043 3040 3035
3051 3052 3053 3054 3055 3055 3055 3055 3055 3055 3054 3052 3050 3048 3046 3043 3040 3037 3034 3030 3026 3023
3044 3045 3046 3047 3048 3048 3049 3049 3048 3047 3046 3044 3042 3039 3036 3033 3029 3025 3021 3017 3012 3007
3038 3038 3040 3041 3041 3042 3042 3042 3041 3039 3037 3036 3033 3030 3026 3021 3017 3013 3009 3005 3000 2994
3031 3032 3033 3034 3034 3035 3034 3034 3032 3031 3028 3025 3023 3019 3015 3010 3005 3001 2997 2995 2990 2985
3024 3025 3025 3026 3026 3026 3026 3025 3023 3021 3018 3015 3011 3007 3003 2999 2994 2990 2987 2984 2981 2978